EW2359 Weather Reports


time (UTC)temp
C
wind
direction
speed
KPH
gust
KPH
rain 1hr
cm
rain 24hr
cm
rain mn
cm
humidity
%
barometer
mb
20260509090025 13 186 3.2 4.8 0.18 2.34 1.12 94 1007.2
20260509085526 13 236 0.0 6.4 0.15 2.31 1.09 94 1007.3
20260509085055 13 189 1.6 6.4 0.15 2.31 1.09 94 1007.5
20260509084555 13 215 3.2 4.8 0.13 2.29 1.07 94 1007.6
20260509084025 13 201 3.2 4.8 0.10 2.26 1.04 94 1007.5
20260509083555 13 224 1.6 4.8 0.10 2.24 1.02 94 1007.4
20260509083026 13 237 4.8 4.8 0.08 2.21 0.99 94 1007.4
20260509082555 13 220 3.2 4.8 0.08 2.21 0.99 94 1007.4
20260509082055 13 229 1.6 4.8 0.05 2.18 0.97 94 1007.4
20260509081525 13 260 1.6 4.8 0.05 2.18 0.97 94 1007.4
20260509081025 13 231 1.6 4.8 0.05 2.18 0.97 94 1007.3
20260509080555 13 236 1.6 4.8 0.05 2.18 0.97 94 1007.4
20260509080025 13 244 3.2 4.8 0.03 2.16 0.94 94 1007.4
20260509075025 13 162 0.0 4.8 0.03 2.16 0.94 94 1007.4
20260509074555 13 206 4.8 6.4 0.03 2.16 0.94 94 1007.4
20260509074025 13 218 1.6 6.4 0.03 2.16 0.94 94 1007.3
20260509073525 13 206 0.0 4.8 0.00 2.13 0.91 94 1007.4
20260509073056 13 218 1.6 8.0 0.00 2.13 0.91 94 1007.4
20260509072525 13 216 4.8 8.0 0.00 2.13 0.91 94 1007.4
20260509072055 13 264 0.0 4.8 0.00 2.13 0.91 94 1007.6
20260509071555 13 189 1.6 3.2 0.00 2.13 0.91 94 1007.6
20260509071055 13 213 1.6 3.2 0.03 2.13 0.91 94 1007.8
20260509070555 13 193 1.6 3.2 0.03 2.13 0.91 94 1007.8
20260509070055 13 194 1.6 3.2 0.05 2.13 0.91 94 1007.7
20260509065555 13 194 0.0 3.2 0.10 2.13 0.91 94 1007.8
20260509065055 13 194 1.6 3.2 0.15 2.13 0.91 94 1007.9
20260509064555 13 194 1.6 3.2 0.20 2.13 0.91 94 1008.0
20260509064025 13 194 3.2 3.2 0.25 2.13 0.91 94 1008.2
20260509063025 13 194 1.6 3.2 0.33 2.13 0.91 94 1008.2
20260509062555 13 259 0.0 1.6 0.41 2.13 0.91 94 1008.2
20260509062055 13 259 0.0 4.8 0.46 2.13 0.91 94 1008.2
20260509061555 13 259 1.6 4.8 0.48 2.13 0.91 94 1008.2
20260509061055 13 231 4.8 6.4 0.46 2.11 0.89 94 1008.2
20260509060555 13 232 1.6 6.4 0.48 2.11 0.89 94 1008.3
20260509060056 13 218 3.2 6.4 0.51 2.08 0.86 94 1008.5
20260509054055 13 206 1.6 6.4 0.46 1.88 0.66 94 1009.1
20260509053025 13 221 3.2 6.4 0.46 1.80 0.58 94 1009.3
20260509052055 13 218 6.4 8.0 0.41 1.68 0.46 94 1009.3
20260509051555 13 189 1.6 6.4 0.41 1.65 0.43 94 1009.2
20260509050525 13 194 1.6 6.4 0.41 1.63 0.41 94 1009.1
20260509045555 13 192 3.2 4.8 0.36 1.55 0.33 94 1009.1
20260509045055 13 218 0.0 3.2 0.33 1.50 0.28 94 1009.0
20260509044026 13 158 0.0 3.2 0.36 1.42 0.20 94 1009.0
20260509043555 13 158 1.6 3.2 0.38 1.40 0.18 94 1008.9
20260509043055 13 158 1.6 4.8 0.36 1.35 0.13 94 1008.9
20260509042555 13 158 3.2 8.0 0.36 1.32 0.10 94 1008.9
20260509042055 13 176 3.2 8.0 0.33 1.27 0.05 94 1008.9
20260509041555 13 239 4.8 4.8 0.30 1.24 0.03 94 1009.0
20260509041055 13 203 3.2 4.8 0.30 1.24 0.03 94 1008.8
20260509040525 13 187 1.6 8.0 0.28 1.22 0.00 94 1008.9
20260509040056 13 180 1.6 8.0 0.28 1.22 0.00 93 1008.8
20260509035555 13 231 3.2 11.3 0.25 1.19 1.19 93 1008.8
20260509035025 13 167 4.8 11.3 0.23 1.17 1.17 93 1008.9
20260509034555 13 172 3.2 8.0 0.18 1.12 1.12 93 1009.2
20260509033555 13 183 3.2 6.4 0.10 1.02 1.02 93 1009.2
20260509033055 13 179 3.2 6.4 0.08 0.99 0.99 93 1009.2
20260509032555 13 180 1.6 6.4 0.08 0.97 0.97 93 1009.2
20260509032055 13 188 1.6 6.4 0.08 0.94 0.94 93 1009.1
20260509031555 13 165 1.6 8.0 0.10 0.94 0.94 93 1009.1
20260509030555 13 153 3.2 6.4 0.15 0.94 0.94 93 1009.0
20260509025555 13 177 3.2 6.4 0.20 0.94 0.94 93 1009.2
20260509024555 13 174 1.6 3.2 0.25 0.94 0.94 93 1009.4
20260509023555 13 171 1.6 3.2 0.28 0.91 0.91 93 1009.3
20260509023055 13 180 0.0 3.2 0.30 0.91 0.91 93 1009.3
20260509022555 13 180 0.0 3.2 0.28 0.89 0.89 93 1009.4
20260509022055 13 196 0.0 3.2 0.28 0.86 0.86 93 1009.5
20260509021055 13 243 1.6 8.0 0.23 0.81 0.81 93 1009.8
20260509020555 13 249 3.2 8.0 0.20 0.79 0.79 93 1009.7
20260509020055 13 210 3.2 6.4 0.18 0.76 0.76 93 1009.6
20260509015555 13 195 3.2 3.2 0.18 0.74 0.74 93 1009.5
20260509015055 13 200 0.0 6.4 0.15 0.71 0.71 93 1009.5
20260509014555 13 172 0.0 6.4 0.13 0.69 0.69 93 1009.4
20260509014054 13 164 1.6 6.4 0.10 0.66 0.66 93 1009.3
20260509013555 13 169 6.4 6.4 0.08 0.64 0.64 93 1009.3
20260509013055 13 179 1.6 4.8 0.05 0.61 0.61 93 1009.4
20260509012554 13 230 1.6 4.8 0.05 0.61 0.61 93 1009.4
20260509012055 13 218 1.6 3.2 0.03 0.58 0.58 92 1009.3
20260509011555 13 225 1.6 3.2 0.05 0.58 0.58 93 1009.3
20260509011055 13 222 0.0 4.8 0.05 0.58 0.58 93 1009.3
20260509010055 13 195 1.6 4.8 0.10 0.58 0.58 92 1009.2
20260509005525 13 237 0.0 3.2 0.10 0.56 0.56 92 1009.2
20260509005025 13 237 0.0 3.2 0.15 0.56 0.56 92 1009.1
20260509004554 13 237 0.0 3.2 0.18 0.56 0.56 92 1008.9
20260509004055 13 164 0.0 0.0 0.23 0.56 0.56 92 1008.9
20260509003555 13 164 0.0 0.0 0.25 0.56 0.56 92 1008.7
20260509003054 13 164 0.0 3.2 0.28 0.56 0.56 92 1008.9
20260509002554 13 164 0.0 3.2 0.30 0.56 0.56 92 1008.9
20260509002054 13 182 1.6 3.2 0.33 0.56 0.56 92 1008.8
20260509001555 13 182 0.0 3.2 0.30 0.53 0.53 92 1008.9
20260509001025 13 151 0.0 0.0 0.33 0.53 0.53 91 1009.1
20260509000556 13 151 0.0 1.6 0.33 0.51 0.51 91 1009.1
20260509000055 13 151 0.0 1.6 0.33 0.48 0.48 91 1009.2
20260508235555 13 145 0.0 1.6 0.30 0.46 0.46 91 1009.1
20260508235054 13 98 0.0 1.6 0.30 0.41 0.41 91 1009.1
20260508234555 13 116 0.0 0.0 0.30 0.38 0.38 91 1009.2
20260508234024 13 116 0.0 1.6 0.25 0.33 0.33 90 1008.9
20260508233054 13 116 0.0 6.4 0.23 0.28 0.28 90 1009.1
20260508232554 14 186 0.0 6.4 0.20 0.25 0.25 90 1009.2
20260508232055 14 15 0.0 3.2 0.18 0.23 0.23 90 1009.4
20260508231525 14 15 1.6 3.2 0.18 0.23 0.23 90 1009.3
20260508231025 14 15 0.0 3.2 0.18 0.20 0.20 90 1009.4
20260508230526 14 33 0.0 1.6 0.15 0.18 0.18 90 1009.4
20260508230025 14 33 0.0 0.0 0.15 0.15 0.15 89 1009.3
20260508225525 14 33 0.0 1.6 0.15 0.15 0.15 89 1009.1
20260508225054 14 33 0.0 1.6 0.10 0.10 0.10 88 1009.1
20260508224554 14 33 0.0 1.6 0.08 0.08 0.08 88 1009.3
20260508224024 14 33 0.0 4.8 0.08 0.08 0.08 87 1009.0
20260508223554 14 33 0.0 4.8 0.08 0.08 0.08 87 1008.9
20260508223054 15 6 0.0 3.2 0.05 0.05 0.05 86 1009.0
20260508222524 15 18 1.6 6.4 0.05 0.05 0.05 85 1009.0
20260508222055 15 356 3.2 6.4 0.05 0.05 0.05 84 1009.1
20260508221554 15 334 3.2 4.8 0.05 0.05 0.05 82 1009.1
20260508220554 16 265 1.6 1.6 0.03 0.03 0.03 79 1009.2
20260508215554 16 326 0.0 3.2 0.00 0.00 0.00 76 1009.0
20260508215054 16 237 0.0 1.6 0.00 0.00 0.00 74 1009.0
20260508214554 16 236 0.0 1.6 0.00 0.00 0.00 73 1008.8
20260508214054 17 236 0.0 0.0 0.00 0.00 0.00 72 1008.6
20260508213554 17 236 0.0 0.0 0.00 0.00 0.00 71 1008.6
20260508213054 17 236 0.0 4.8 0.00 0.00 0.00 70 1008.6
20260508212554 17 236 0.0 4.8 0.00 0.00 0.00 67 1008.6
20260508212025 17 214 1.6 8.0 0.00 0.00 0.00 66 1008.5
20260508211554 17 251 1.6 9.7 0.00 0.00 0.00 64 1008.6
20260508211055 17 235 3.2 9.7 0.00 0.00 0.00 62 1008.8
20260508210554 17 239 4.8 11.3 0.00 0.00 0.00 60 1008.9
20260508210054 18 210 4.8 14.5 0.00 0.00 0.00 60 1008.8
20260508205555 18 211 8.0 14.5 0.00 0.00 0.00 57 1008.8
20260508205055 18 212 6.4 9.7 0.00 0.00 0.00 56 1008.8
20260508204554 18 216 3.2 9.7 0.00 0.00 0.00 55 1008.8
20260508204055 19 251 3.2 12.9 0.00 0.00 0.00 53 1008.6
20260508203554 19 208 1.6 12.9 0.00 0.00 0.00 52 1008.6
20260508203054 19 186 3.2 8.0 0.00 0.00 0.00 52 1008.8
20260508202554 19 242 4.8 9.7 0.00 0.00 0.00 52 1008.8
20260508202054 19 207 6.4 9.7 0.00 0.00 0.00 51 1008.9
20260508200554 19 208 4.8 12.9 0.00 0.00 0.00 52 1009.0
20260508200054 19 167 4.8 12.9 0.00 0.00 0.00 51 1009.0
20260508195554 19 221 3.2 16.1 0.00 0.00 0.00 52 1009.1
20260508195054 19 213 3.2 16.1 0.00 0.00 0.00 52 1009.2
20260508194054 19 219 1.6 12.9 0.00 0.00 0.00 52 1009.5
20260508193024 19 260 1.6 12.9 0.00 0.00 0.00 52 1009.5
20260508191555 18 181 1.6 14.5 0.00 0.00 0.00 53 1009.8
20260508190555 18 221 1.6 11.3 0.00 0.00 0.00 55 1009.9
20260508190024 18 212 4.8 11.3 0.00 0.00 0.00 55 1010.0
20260508185554 18 242 4.8 11.3 0.00 0.00 0.00 55 1010.1
20260508185054 18 207 4.8 8.0 0.00 0.00 0.00 54 1010.2
20260508184554 18 228 1.6 6.4 0.00 0.00 0.00 55 1010.3
20260508183554 18 217 3.2 12.9 0.00 0.00 0.00 54 1010.4
20260508183054 18 260 9.7 11.3 0.00 0.00 0.00 54 1010.4
20260508181024 18 253 3.2 12.9 0.00 0.00 0.00 52 1010.7
20260508180554 19 238 9.7 12.9 0.00 0.00 0.00 51 1010.6
20260508180054 19 228 3.2 19.3 0.00 0.00 0.00 53 1010.8
20260508175054 19 176 1.6 14.5 0.00 0.00 0.00 51 1010.8
20260508174524 19 147 6.4 14.5 0.00 0.00 0.00 54 1010.9
20260508174054 19 222 8.0 17.7 0.00 0.00 0.00 53 1010.9
20260508173524 18 253 3.2 17.7 0.00 0.00 0.00 55 1011.0
20260508173054 18 235 17.7 17.7 0.00 0.00 0.00 53 1011.0
20260508172555 18 233 6.4 16.1 0.00 0.00 0.00 52 1011.1
20260508172054 18 226 4.8 20.9 0.00 0.00 0.00 52 1011.1
20260508171554 18 206 16.1 22.5 0.00 0.00 0.00 53 1011.2
20260508171054 18 224 19.3 22.5 0.00 0.00 0.00 52 1011.4
20260508170524 18 215 22.5 22.5 0.00 0.00 0.00 56 1011.5
20260508170054 18 255 4.8 17.7 0.00 0.00 0.00 53 1011.6
20260508164554 17 216 8.0 19.3 0.00 0.00 0.00 54 1011.8
20260508164054 17 166 9.7 14.5 0.00 0.00 0.00 53 1011.9
20260508163054 18 243 4.8 14.5 0.00 0.00 0.00 54 1012.2
20260508162553 18 208 9.7 16.1 0.00 0.00 0.00 54 1012.3
20260508162024 18 225 4.8 16.1 0.00 0.00 0.00 53 1012.3
20260508160553 17 230 3.2 12.9 0.00 0.00 0.00 57 1012.2
20260508160053 17 210 6.4 17.7 0.00 0.00 0.00 56 1012.3
20260508155553 17 261 11.3 17.7 0.00 0.00 0.00 57 1012.2
20260508155053 17 262 4.8 16.1 0.00 0.00 0.00 55 1012.3
20260508154553 17 257 6.4 19.3 0.00 0.00 0.00 56 1012.4
20260508153553 17 235 8.0 19.3 0.00 0.00 0.00 54 1012.5
20260508153053 17 209 6.4 19.3 0.00 0.00 0.00 55 1012.4
20260508152552 17 231 19.3 19.3 0.00 0.00 0.00 54 1012.4
20260508152052 17 247 8.0 24.1 0.00 0.00 0.00 54 1012.4
20260508151552 17 237 4.8 24.1 0.00 0.00 0.00 54 1012.5
20260508151052 17 193 9.7 16.1 0.00 0.00 0.00 56 1012.5
20260508150552 17 241 8.0 17.7 0.00 0.00 0.00 56 1012.3
20260508150052 17 239 14.5 25.7 0.00 0.00 0.00 55 1012.5
20260508145552 17 217 9.7 25.7 0.00 0.00 0.00 56 1012.6
20260508145052 17 251 3.2 19.3 0.00 0.00 0.00 57 1012.5
20260508144552 16 184 4.8 19.3 0.00 0.00 0.00 55 1012.6
20260508144053 17 208 3.2 11.3 0.00 0.00 0.00 56 1012.7
20260508143052 16 199 4.8 17.7 0.00 0.00 0.00 57 1012.8
20260508142552 16 247 11.3 17.7 0.00 0.00 0.00 56 1012.7
20260508142052 16 243 9.7 24.1 0.00 0.00 0.00 57 1012.9
20260508141052 15 245 6.4 19.3 0.00 0.00 0.00 57 1012.9
20260508140552 15 274 3.2 14.5 0.00 0.00 0.00 57 1012.8
20260508140052 15 213 6.4 12.9 0.00 0.00 0.00 58 1012.9
20260508135552 15 199 4.8 17.7 0.00 0.00 0.00 57 1013.0
20260508135052 15 216 6.4 17.7 0.00 0.00 0.00 57 1013.0
20260508134552 15 214 6.4 17.7 0.00 0.00 0.00 58 1012.9
20260508133552 15 277 3.2 8.0 0.00 0.00 0.00 58 1013.0
20260508132552 14 189 6.4 14.5 0.00 0.00 0.00 58 1013.1
20260508132052 14 200 14.5 14.5 0.00 0.00 0.00 58 1013.1
20260508131552 13 279 4.8 14.5 0.00 0.00 0.00 58 1013.1
20260508131052 13 254 6.4 12.9 0.00 0.00 0.00 59 1013.1
20260508130552 13 243 3.2 12.9 0.00 0.00 0.00 59 1013.1
20260508130052 13 216 8.0 14.5 0.00 0.00 0.00 59 1013.1
20260508125552 13 184 6.4 17.7 0.00 0.00 0.00 60 1013.1
20260508125052 12 256 14.5 17.7 0.00 0.00 0.00 60 1013.1
20260508122551 12 243 6.4 9.7 0.00 0.00 0.00 61 1013.2
20260508122051 11 237 1.6 6.4 0.00 0.00 0.00 64 1013.1
20260508121551 11 206 3.2 8.0 0.00 0.00 0.00 64 1013.1
20260508121051 11 227 3.2 8.0 0.00 0.00 0.00 64 1013.1
20260508120551 11 164 6.4 8.0 0.00 0.00 0.00 64 1013.0
20260508120051 11 212 3.2 8.0 0.00 0.00 0.00 64 1013.0
20260508115551 11 255 4.8 8.0 0.00 0.00 0.00 64 1013.1
20260508115051 10 228 3.2 8.0 0.00 0.00 0.00 65 1013.0
20260508114551 10 224 4.8 4.8 0.00 0.00 0.00 65 1013.0
20260508114051 10 255 3.2 6.4 0.00 0.00 0.00 65 1012.9
20260508113551 10 229 1.6 6.4 0.00 0.00 0.00 65 1012.8
20260508112551 10 230 1.6 6.4 0.00 0.00 0.00 65 1012.9
20260508111551 10 225 0.0 8.0 0.00 0.00 0.00 66 1012.9
20260508111051 10 228 0.0 6.4 0.00 0.00 0.00 66 1012.9
20260508110551 9 243 1.6 3.2 0.00 0.00 0.00 66 1012.8
20260508110051 10 243 1.6 3.2 0.00 0.00 0.00 66 1012.8
20260508105551 10 251 1.6 4.8 0.00 0.00 0.00 65 1012.8
20260508105051 10 239 1.6 4.8 0.00 0.00 0.00 65 1012.8
20260508104551 10 228 1.6 4.8 0.00 0.00 0.00 66 1012.7
20260508104051 10 214 1.6 3.2 0.00 0.00 0.00 65 1012.8
20260508103551 10 228 1.6 4.8 0.00 0.00 0.00 65 1012.8
20260508103050 10 236 3.2 4.8 0.00 0.00 0.00 65 1012.8
20260508102551 10 234 1.6 4.8 0.00 0.00 0.00 65 1012.7
20260508101550 10 229 0.0 3.2 0.00 0.00 0.00 65 1012.6
20260508101051 10 221 1.6 4.8 0.00 0.00 0.00 65 1012.6
20260508100551 10 222 3.2 4.8 0.00 0.00 0.00 64 1012.6
20260508100050 10 204 1.6 3.2 0.00 0.00 0.00 64 1012.6
20260508095050 10 231 0.0 4.8 0.00 0.00 0.00 65 1012.7
20260508094551 10 220 1.6 3.2 0.00 0.00 0.00 64 1012.7
20260508094050 10 203 1.6 3.2 0.00 0.00 0.00 65 1012.7
20260508093551 10 203 3.2 6.4 0.00 0.00 0.00 63 1012.8
20260508093050 11 220 1.6 6.4 0.00 0.00 0.00 63 1012.9
20260508092550 11 235 0.0 4.8 0.00 0.00 0.00 63 1012.9
20260508092050 11 226 0.0 6.4 0.00 0.00 0.00 63 1012.9
20260508091551 11 230 3.2 6.4 0.00 0.00 0.00 62 1012.9